Strona główna
METAR-TAF:

METAR-TAF

Lotnisko :

Schaffen

Diest, Belgia

Szerokość geograficzna: 51-00N, Długość geograficzna: 005-04E, wysokość: 30 m

Aktualna obserwacja pogody

Raport powstał 41 minut temu, godzina 15:25 UTC
Wiatr 10 kt od południowo-południowy zachód
Temperatura 10°C
Wilgotność 71%
Ciśnienie 1014 hPa
Widzialność 10 km lub więcej

METAR: EBDT 261525Z AUTO 20010KT 9999 FEW070/// SCT130/// BKN220/// 10/05 Q1014 BLU

czas: 17:06 (16:06 UTC)


TAF: brakujący

Obserwacja i prognoza pogody dla ponad 4000 lotnisk (raport METAR i TAF).

Dostępne stacje oznaczono żółtymi i czerwonymi punktami na mapie.

Najedź kursorem aby zobaczyć nazwę stacji.

Kliknij aby zobaczyć obserwacje i prognozy pogody.

Aby zmienić mapę: kliknij na zielony przycisk z czarnym krzyżykiem, aby powiększyć; na zielony przycisk z myślnikiem, aby pomniejszyć; na zielone strzałki, aby przejść do map sąsiednich.


METAR-TAF: